Location: Seattle
(47.6064°N, 122.3308°W)
Time: 04:56:03
(UTC-08:00)

N. Korean satellite - Pass Details

Date: 03 December 2022
Orbit: 407 x 441 km, 97.3° (Epoch: 05 February)

Event Time Altitude Azimuth Distance (km) Brightness Sun altitude
Rises 17:27:46 0° 202° (SSW) 2,449 10.8 -11.2°
Reaches altitude 10° 17:30:14 10° 222° (SW) 1,595 10.2 -11.5°
Maximum altitude 17:32:42 18° 268° (W) 1,187 9.6 -11.9°
Drops below altitude 10° 17:35:12 10° 314° (NW) 1,626 9.6 -12.3°
Sets 17:37:45 0° 333° (NNW) 2,517 10.3 -12.7°
